Ionia, MI

2:06 PM EDT on June 28, 2017 (GMT -0400)
Ionia

Weather History for KY70 - October, 2013

Change the Weather History Date:

Tuesday, October 8, 2013

  Actual Average (KGRR) Record (KGRR)
Temperature  
Mean Temperature 57 °F -  
Max Temperature 71 °F 63 °F 88 °F (2007)
Min Temperature 43 °F 43 °F 28 °F (1989)
Degree Days  
Heating Degree Days 8    
Growing Degree Days 7 (Base 50)    
Moisture  
Dew Point 44 °F    
Average Humidity 68    
Maximum Humidity 96    
Minimum Humidity 36    
Precipitation  
Precipitation 0.00 in - - ()
Sea Level Pressure  
Sea Level Pressure 30.19 in    
Wind  
Wind Speed 7 mph (South)    
Max Wind Speed 15 mph    
Max Gust Speed 22 mph    
Visibility 10 miles    
Events      
Averages and records for this station are not official NWS values.
T = Trace of Precipitation, MM = Missing Value Source: NWS Daily Summary

Daily Weather History Graph

Daily Weather History Graph

Search for Another Location

Airport or City:

Trip Planner

Search our weather history database for the weather conditions in past years. The results will help you decide how hot, cold, wet, or windy it might be!

Date:

Astronomy

Oct. 08, 2013 Rise Set
Actual Time 7:45 AM EDT 7:08 PM EDT
Civil Twilight 7:17 AM EDT 7:37 PM EDT
Nautical Twilight 6:44 AM EDT 8:09 PM EDT
Astronomical Twilight 6:11 AM EDT 8:42 PM EDT
Moon 11:44 AM EDT (10/8) 9:39 PM EDT (10/8)
Length of Visible Light 12h 19m
Length of Day
11h 23m
Waxing Crescent, 16% of the Moon is Illuminated
Oct 8
Waxing Crescent
Oct 11
First Quarter
Oct 18
Full
Oct 26
Last Quarter
Nov 3
New

Hourly Weather History & Observations

Time (EDT) Temp. Windchill Dew Point Humidity Pressure Visibility Wind Dir Wind Speed Gust Speed Precip Events Conditions
12:14 AM 47.3 °F - 44.6 °F 90% 30.09 in 10.0 mi SW 5.8 mph - N/A   Clear
12:34 AM 47.3 °F - 44.4 °F 90% 30.10 in 10.0 mi SW 5.8 mph - N/A   Clear
12:54 AM 47.5 °F - 44.8 °F 90% 30.10 in 10.0 mi SW 6.9 mph - N/A   Clear
1:14 AM 46.6 °F - 43.7 °F 90% 30.10 in 10.0 mi SSW 3.5 mph - N/A   Clear
1:34 AM 46.6 °F - 44.1 °F 91% 30.11 in 10.0 mi SW 4.6 mph - N/A   Clear
1:54 AM 46.9 °F - 44.6 °F 92% 30.12 in 10.0 mi SW 5.8 mph - N/A   Clear
2:14 AM 46.2 °F 43.3 °F 44.1 °F 92% 30.12 in 10.0 mi SW 5.8 mph - N/A   Clear
2:34 AM 47.5 °F - 44.8 °F 90% 30.13 in 10.0 mi SW 5.8 mph - N/A   Clear
2:54 AM 47.3 °F - 44.6 °F 90% 30.13 in 10.0 mi SW 8.1 mph - N/A   Clear
3:14 AM 46.6 °F - 44.2 °F 92% 30.13 in 10.0 mi SW 4.6 mph - N/A   Clear
3:34 AM 46.4 °F 43.5 °F 43.7 °F 90% 30.14 in 10.0 mi SW 5.8 mph - N/A   Clear
3:54 AM 47.1 °F - 43.9 °F 88% 30.14 in 10.0 mi SSW 8.1 mph - N/A   Clear
4:14 AM 47.5 °F - 44.2 °F 89% 30.14 in 10.0 mi SW 8.1 mph - N/A   Clear
4:34 AM 48.2 °F - 44.2 °F 86% 30.15 in 10.0 mi SSW 8.1 mph - N/A   Clear
4:54 AM 47.3 °F - 43.9 °F 88% 30.15 in 10.0 mi SSW 6.9 mph - N/A   Clear
5:14 AM 46.4 °F 43.5 °F 43.3 °F 89% 30.15 in 10.0 mi SSW 5.8 mph - N/A   Clear
5:34 AM 46.2 °F 44.1 °F 43.0 °F 88% 30.16 in 10.0 mi SSW 4.6 mph - N/A   Clear
5:54 AM 46.6 °F - 43.3 °F 88% 30.17 in 10.0 mi SSW 3.5 mph - N/A   Clear
6:14 AM 45.5 °F 44.2 °F 42.3 °F 88% 30.17 in 10.0 mi South 3.5 mph - N/A   Clear
6:34 AM 44.4 °F - 42.8 °F 94% 30.19 in 10.0 mi Calm Calm - N/A   Clear
6:54 AM 44.2 °F - 42.4 °F 93% 30.19 in 10.0 mi Calm Calm - N/A   Clear
7:14 AM 43.9 °F 42.3 °F 42.3 °F 94% 30.20 in 10.0 mi SSW 3.5 mph - N/A   Clear
7:34 AM 43.3 °F - 41.5 °F 93% 30.20 in 10.0 mi Calm Calm - N/A   Clear
7:54 AM 43.0 °F - 41.9 °F 96% 30.21 in 10.0 mi Calm Calm - N/A   Clear
8:14 AM 43.3 °F 41.7 °F 41.7 °F 94% 30.21 in 10.0 mi SSE 3.5 mph - N/A   Clear
8:34 AM 44.4 °F 42.9 °F 42.6 °F 93% 30.22 in 10.0 mi SE 3.5 mph - N/A   Clear
8:54 AM 46.8 °F - 44.6 °F 92% 30.22 in 10.0 mi SE 3.5 mph - N/A   Clear
9:14 AM 49.6 °F - 45.9 °F 87% 30.23 in 10.0 mi SSE 3.5 mph - N/A   Clear
9:34 AM 52.0 °F - 46.4 °F 81% 30.24 in 10.0 mi SSE 3.5 mph - N/A   Clear
9:54 AM 54.9 °F - 45.9 °F 72% 30.24 in 10.0 mi SSE 4.6 mph - N/A   Clear
10:14 AM 57.2 °F - 44.8 °F 63% 30.24 in 10.0 mi South 6.9 mph - N/A   Clear
10:34 AM 59.2 °F - 43.5 °F 56% 30.24 in 10.0 mi South 9.2 mph - N/A   Clear
10:54 AM 60.8 °F - 42.3 °F 50% 30.24 in 10.0 mi South 11.5 mph - N/A   Clear
11:14 AM 62.2 °F - 41.7 °F 47% 30.24 in 10.0 mi South 10.4 mph - N/A   Clear
11:34 AM 63.1 °F - 41.2 °F 45% 30.24 in 10.0 mi South 13.8 mph - N/A   Clear
11:54 AM 64.2 °F - 41.5 °F 44% 30.24 in 10.0 mi South 11.5 mph - N/A   Clear
12:14 PM 65.3 °F - 41.0 °F 41% 30.24 in 10.0 mi South 12.7 mph 18.4 mph N/A   Clear
12:34 PM 65.5 °F - 41.5 °F 42% 30.24 in 10.0 mi South 15.0 mph - N/A   Clear
12:54 PM 66.6 °F - 41.7 °F 40% 30.24 in 10.0 mi South 13.8 mph 21.9 mph N/A   Clear
1:14 PM 67.1 °F - 42.6 °F 41% 30.23 in 10.0 mi South 12.7 mph 18.4 mph N/A   Clear
1:34 PM 67.6 °F - 42.8 °F 41% 30.22 in 10.0 mi SSE 13.8 mph 20.7 mph N/A   Clear
1:54 PM 68.0 °F - 43.3 °F 41% 30.22 in 10.0 mi South 9.2 mph - N/A   Clear
2:14 PM 68.7 °F - 43.7 °F 40% 30.21 in 10.0 mi South 12.7 mph - N/A   Clear
2:34 PM 68.7 °F - 45.1 °F 43% 30.20 in 10.0 mi SSE 12.7 mph 16.1 mph N/A   Clear
2:54 PM 69.6 °F - 44.4 °F 40% 30.20 in 10.0 mi South 6.9 mph - N/A   Clear
3:14 PM 70.2 °F - 43.9 °F 39% 30.20 in 10.0 mi South 9.2 mph - N/A   Clear
3:34 PM 70.2 °F - 43.7 °F 38% 30.20 in 10.0 mi SSW 10.4 mph - N/A   Clear
3:54 PM 70.0 °F - 44.1 °F 39% 30.20 in 10.0 mi SSW 10.4 mph - N/A   Clear
4:14 PM 71.1 °F - 43.9 °F 38% 30.20 in 10.0 mi South 11.5 mph - N/A   Clear
4:34 PM 70.9 °F - 43.2 °F 37% 30.20 in 10.0 mi South 9.2 mph - N/A   Clear
4:54 PM 70.9 °F - 42.8 °F 36% 30.19 in 10.0 mi South 8.1 mph - N/A   Clear
5:14 PM 70.7 °F - 42.8 °F 36% 30.19 in 10.0 mi South 5.8 mph - N/A   Clear
5:34 PM 70.5 °F - 43.0 °F 37% 30.19 in 10.0 mi SSW 9.2 mph - N/A   Clear
5:54 PM 70.2 °F - 43.0 °F 37% 30.19 in 10.0 mi South 9.2 mph - N/A   Clear
6:14 PM 69.8 °F - 44.1 °F 39% 30.19 in 10.0 mi South 8.1 mph - N/A   Clear
6:34 PM 68.7 °F - 44.6 °F 42% 30.20 in 10.0 mi South 6.9 mph - N/A   Clear
6:54 PM 66.9 °F - 45.5 °F 46% 30.20 in 10.0 mi South 5.8 mph - N/A   Clear
7:14 PM 64.0 °F - 45.5 °F 51% 30.20 in 10.0 mi South 5.8 mph - N/A   Clear
7:34 PM 60.3 °F - 46.4 °F 60% 30.21 in 10.0 mi SSE 6.9 mph - N/A   Clear
7:54 PM 60.3 °F - 46.4 °F 60% 30.21 in 10.0 mi SSE 6.9 mph - N/A   Clear
8:14 PM 59.0 °F - 46.6 °F 63% 30.22 in 10.0 mi SSE 5.8 mph - N/A   Clear
8:34 PM 57.4 °F - 46.6 °F 67% 30.22 in 10.0 mi SSE 6.9 mph - N/A   Clear
8:54 PM 56.7 °F - 46.4 °F 69% 30.22 in 10.0 mi SE 6.9 mph - N/A   Clear
9:14 PM 55.6 °F - 46.6 °F 72% 30.22 in 10.0 mi SSE 6.9 mph - N/A   Clear
9:34 PM 55.6 °F - 46.6 °F 72% 30.23 in 10.0 mi SE 6.9 mph - N/A   Clear
9:54 PM 54.1 °F - 46.4 °F 75% 30.23 in 10.0 mi SSE 8.1 mph - N/A   Clear
10:14 PM 54.0 °F - 46.4 °F 76% 30.23 in 10.0 mi SSE 6.9 mph - N/A   Clear
10:34 PM 53.6 °F - 46.4 °F 77% 30.23 in 10.0 mi SSE 8.1 mph - N/A   Clear
10:54 PM 53.4 °F - 46.4 °F 77% 30.24 in 10.0 mi SSE 8.1 mph - N/A   Clear
11:14 PM 52.7 °F - 45.9 °F 78% 30.24 in 10.0 mi SSE 6.9 mph - N/A   Clear
11:34 PM 52.7 °F - 45.9 °F 78% 30.24 in 10.0 mi SSE 8.1 mph - N/A   Clear
11:54 PM 51.6 °F - 45.5 °F 80% 30.24 in 10.0 mi SSE 8.1 mph - N/A   Clear